Location: Godiavel Galaoual
(15.2485°N, 12.6604°W)
Time: 14:17:10
(UTC+00:00)

FALCON 9 R/B - Pass Details

Date: 27 February 2020
Orbit: 285 x 10155 km, 34.5° (Epoch: 29 March)

Event Time Altitude Azimuth Distance (km) Brightness Sun altitude
Rises 18:56:40 0° 295° (WNW) 12,061 9.2 -0.6°
Reaches altitude 10° 19:10:36 10° 302° (WNW) 8,885 8.3 -3.9°
Maximum altitude 19:32:54 42° 7° (N) 2,476 4.5 -9.2°
Enters shadow 19:38:50 13° 76° (ENE) 2,609 4.1 -10.7°
